Home   Weather   Perm   Past weeks
Flag for Russia

Past Weather in Perm, Russia — Yesterday and Last 2 Weeks

Now
45 °F

Light rain. Passing clouds.


Feels Like: 36 °F
Forecast: 46 / 32 °F
Wind: 22 mph from Southwest

Location: Perm'/Bolshoe Savino

Current Time: Oct 22, 2019 at 1:15:33 am

Latest Report: Oct 22, 2019 at 12:30 am


Visibility: N/A

Pressure: 29.80 "Hg

Humidity: 93%

Dew Point: 43 °F

Location of PermLocation

Past Weather in Perm — Graph

°F

Perm Temperature Yesterday

Maximum temperature yesterday: 45 °F (at 10:30 pm)
Minimum temperature yesterday: 36 °F (at 12:00 am)
Average temperature yesterday: 39 °F

High & Low Weather Summary for the Past Weeks

 TemperatureHumidityPressure
High66 °F (Oct 7, 3:30 pm)100% (Oct 9, 3:30 am)30.48 "Hg (Oct 9, 3:30 am)
Low18 °F (Oct 20, 6:00 am)28% (Oct 7, 3:30 pm)29.74 "Hg (Oct 15, 7:00 pm)
Average37 °F84%30.09 "Hg
* Reported Oct 7 12:00 am — Oct 22 12:00 am, Perm. Weather by CustomWeather, © 2019

Note: Actual official high and low records may vary slightly from our data, if they occured in-between our weather recording intervals... More about our weather records

Advertising

Perm Weather History for the Previous 24 Hours

Scroll right to see more
 ConditionsComfort  
Time TempWeatherWind HumidityBarometerVisibility
12:00 am
Tue, Oct 22
45 °FLight rain. Passing clouds.17 mph93%29.83 "HgN/A
11:30 pm
Mon, Oct 21
45 °FLight rain. Passing clouds.15 mph93%29.86 "HgN/A
11:00 pm45 °FLight rain. Passing clouds.15 mph93%29.89 "HgN/A
10:30 pm45 °FLight rain. Passing clouds.15 mph100%29.89 "HgN/A
10:00 pm43 °FLow clouds.13 mph100%29.95 "HgN/A
9:30 pm43 °FLow clouds.13 mph100%29.95 "HgN/A
9:00 pm43 °FLow clouds.10 mph100%29.98 "HgN/A
8:30 pm43 °FLow clouds.10 mph100%30.01 "HgN/A
8:00 pm43 °FLow clouds.8 mph100%30.01 "HgN/A
7:30 pm43 °FLow clouds.6 mph100%30.04 "HgN/A
7:00 pm43 °FLow clouds.8 mph93%30.07 "HgN/A
6:30 pm43 °FLow clouds.10 mph93%30.07 "HgN/A
6:00 pm43 °FLow clouds.8 mph93%30.09 "HgN/A
5:30 pm41 °FLow clouds.8 mph100%30.09 "HgN/A
5:00 pm41 °FLow clouds.8 mph100%30.09 "HgN/A
4:30 pm41 °FDrizzle. Low clouds.6 mph100%30.12 "Hg4 mi
4:00 pm41 °FDrizzle. Low clouds.6 mph100%30.12 "Hg4 mi
3:30 pm41 °FLow clouds.10 mph100%30.12 "HgN/A
3:00 pm41 °FLow clouds.8 mph100%30.12 "HgN/A
2:30 pm41 °FLow clouds.8 mph100%30.12 "HgN/A
2:00 pm41 °FLow clouds.8 mph100%30.15 "HgN/A
1:30 pm41 °FLow clouds.8 mph93%30.15 "HgN/A
1:00 pm39 °FLow clouds.8 mph100%30.15 "HgN/A
12:30 pm39 °FLow clouds.8 mph100%30.15 "HgN/A
12:00 pm39 °FLow clouds.6 mph100%30.15 "HgN/A
11:30 am39 °FLow clouds.10 mph100%30.15 "HgN/A
11:00 am39 °FLow clouds.10 mph100%30.15 "HgN/A
10:30 am39 °FLow clouds.8 mph93%30.15 "HgN/A
10:00 am37 °FLight rain. Low clouds.8 mph100%30.15 "HgN/A
9:30 am37 °FLight rain. Low clouds.6 mph100%30.15 "HgN/A
9:00 am37 °FLight rain. Low clouds.6 mph100%30.15 "HgN/A
8:30 am37 °FLight rain. Overcast.8 mph100%30.15 "HgN/A
8:00 am37 °FLight rain. Passing clouds.6 mph100%30.15 "HgN/A
7:30 am37 °FPassing clouds.10 mph100%30.15 "HgN/A
7:00 am37 °FFog.8 mph100%30.15 "Hg3 mi
6:30 am37 °FPassing clouds.10 mph100%30.18 "HgN/A
6:00 am37 °FPassing clouds.10 mph100%30.18 "HgN/A
5:00 am37 °FPassing clouds.10 mph93%30.18 "HgN/A
4:30 am36 °FPassing clouds.10 mph100%30.18 "HgN/A
4:00 am36 °FLight rain. Passing clouds.10 mph100%30.18 "HgN/A
3:30 am36 °FLight rain. Passing clouds.13 mph100%30.18 "Hg5 mi
3:00 am36 °FLight rain. Passing clouds.15 mph100%30.18 "Hg4 mi
2:30 am36 °FPassing clouds.13 mph100%30.18 "HgN/A
2:00 am36 °FPassing clouds.13 mph100%30.18 "HgN/A
1:30 am36 °FLight rain. Passing clouds.13 mph93%30.18 "HgN/A
1:00 am36 °FLight rain. Passing clouds.8 mph93%30.21 "HgN/A
Weather by CustomWeather, © 2019

See weather overview